User: anonymous   Login
Location: Unspecified
(0.0000°N, 0.0000°E)
Time: 19:10:47
(UTC+00:00)
Language:

GEOS 3 - Orbit

View from above orbital plane
View from above orbital plane
View from above satellite
View from above satellite

Ground track
Ground track

The orbit data is extracted from the following two-line orbital elements,

1 07734U 75027A   24106.42902603  .00000041  00000-0  10330-3 0  9996
2 07734 114.9932 265.0961 0028122 266.1561  93.6301 14.18891574536782
Epoch (UTC): 15 April 2024 10:17:47
Eccentricity: 0.0028122
inclination: 114.9932°
perigee height: 809 km
apogee height: 849 km
right ascension of ascending node: 265.0961°
argument of perigee: 266.1561°
revolutions per day: 14.18891574
mean anomaly at epoch: 93.6301°
orbit number at epoch: 53678

The dashed part of the orbit path shows where the satellite is in the earth's shadow,  

DLR